ONEWEB-0515, 54133

Orbit data source: Space-Track

ONEWEB-0515, 54133 is a payload satellite owned by One Web (NAA) (UK) in LEO that was launched on Sat, 22 Oct 2022 UTC via a LVM3 launch vehicle from the Sirharikota (SRI). Payload-class satellites include a variety of spacecraft equipped with specific instruments for various scientific and technological missions. These include communications satellites like Starlink; space stations such as the ISS; scientific satellites like the Hubble; Earth observation satellites from companies like Planet Labs, Umbra, and HawkEye 360; GPS; miniature CubeSats for education and research; and military/defense satellites.

Loading next visibility...
Identifier
54133, 2022-138W
Orbit
LEO
Country
Flag of UKUK
Related business
Manufacturer
One Web
Mission
Operational Commercial Communications
Bus & Motor
ARROW, Unknown motor
Mass
148 kg wet, ~140 kg dry
Launch date (UTC)
2022-10-22 (4 years ago)
Launch vehicle
LVM3
Launch site
Sirharikota (SRI)
Object type
Payload
Rocket body
Debris
Shape & HBR
Trap Box + 2 Pan, 6.7 m
Radar Cross Section
3.464 m², Large (>1 m²)

Expand to show TLE details & history
Last TLE update: 2 days ago

TLE from 2 days ago
0 ONEWEB-0515
1 54133U 22138W   26171.30033620  .00000101  00000-0  21602-3 0  9992
2 54133  87.9202 273.8102 0002790 107.7794 252.3644 13.20770791179710
Epoch: 2026-06-20T07:12Z
TLE epoch observation values (Epoch: 2026-06-20T07:12:29.047Z)
Latitude
-0.00002°
Longitude
-102.82777°
Altitude
1,185.32 km
Speed
7.261 km/s
True Right ascension
18h 15m 14s
True Declination
0° 00' 00"
Sunlit
Object was in full shadow at epoch
Visualization orbit readout
Latitude
Unknown
Longitude
Unknown
Altitude
Unknown
Speed
Unknown
Apparent Right ascension
Unknown
Apparent Declination
Unknown
Sunlit
N/A
Visualization observer readout
Local Sidereal Time
21:30:39
Azimuth
Unknown
Elevation
Unknown
Doppler factor
Unknown
Orbital elements
Apogee altitude
1,180.99 km
Perigee altitude
1,176.773 km
Semi-major axis
7,557.018 km
Eccentricity
0.00028
Inclination
87.9202°
RAAN
273.8102°
Arg. of periapsis
107.7794°
True anomaly
252.33393°
Mean anomaly
252.3644°
Eccentric anomaly
252.34917°
Mean motion
3.30383 °/min
Orbital period
108.96 mins
BSTAR
0.00021602
Loading maneuver chart data...
Computing Atmospheric mass density...
Loading historical data...
Loading historical data...
Loading historical data...
Loading historical data...
Loading historical data...
Loading historical data...
Loading historical data...

Documentation

Showing up to 5 results
|